Time,TemperatureF,DewpointF,PressureIn,WindDirection,WindDirectionDegrees,WindSpeedMPH,WindSpeedGustMPH,Humidity,HourlyPrecipIn,Conditions,Clouds,dailyrainin,SoftwareType,DateUTC
2013-02-14 00:01:00,29.9,26.5,29.81,SSW,201,4.0,5.0,87,0.00,,,0.00,Wunderground v.1.15,2013-02-14 05:01:00,
2013-02-14 00:02:00,29.8,26.4,29.81,SSW,198,4.0,5.0,87,0.00,,,0.00,Wunderground v.1.15,2013-02-14 05:02:00,
2013-02-14 00:06:00,29.8,26.7,29.81,SSW,204,4.0,5.0,88,0.00,,,0.00,Wunderground v.1.15,2013-02-14 05:06:00,
2013-02-14 00:07:00,29.8,26.7,29.80,South,185,4.0,5.0,88,0.00,,,0.00,Wunderground v.1.15,2013-02-14 05:07:00,
2013-02-14 00:08:00,29.8,26.7,29.81,SSW,204,3.0,5.0,88,0.00,,,0.00,Wunderground v.1.15,2013-02-14 05:08:00,
2013-02-14 00:10:00,29.8,26.7,29.81,South,180,3.0,4.0,88,0.00,,,0.00,Wunderground v.1.15,2013-02-14 05:10:00,
2013-02-14 00:12:00,29.7,26.6,29.81,SSW,198,3.0,4.0,88,0.00,,,0.00,Wunderground v.1.15,2013-02-14 05:12:00,
2013-02-14 00:15:00,29.6,26.5,29.80,South,180,4.0,5.0,88,0.00,,,0.00,Wunderground v.1.15,2013-02-14 05:15:00,
2013-02-14 00:17:00,29.6,26.5,29.81,SSE,154,4.0,6.0,88,0.00,,,0.00,Wunderground v.1.15,2013-02-14 05:17:00,
2013-02-14 00:18:00,29.6,26.5,29.81,South,185,4.0,6.0,88,0.00,,,0.00,Wunderground v.1.15,2013-02-14 05:18:00,
2013-02-14 00:20:00,29.6,26.5,29.81,SW,216,4.0,4.0,88,0.00,,,0.00,Wunderground v.1.15,2013-02-14 05:20:00,
2013-02-14 00:22:00,29.6,26.5,29.81,South,182,5.0,5.0,88,0.00,,,0.00,Wunderground v.1.15,2013-02-14 05:22:00,
2013-02-14 00:23:00,29.6,26.5,29.81,SW,214,5.0,5.0,88,0.00,,,0.00,Wunderground v.1.15,2013-02-14 05:23:00,
2013-02-14 00:24:00,29.6,26.5,29.81,SSW,203,5.0,5.0,88,0.00,,,0.00,Wunderground v.1.15,2013-02-14 05:24:00,
2013-02-14 00:26:00,29.6,26.5,29.81,South,190,5.0,5.0,88,0.00,,,0.00,Wunderground v.1.15,2013-02-14 05:26:00,
2013-02-14 00:29:00,29.6,26.5,29.81,South,180,5.0,5.0,88,0.00,,,0.00,Wunderground v.1.15,2013-02-14 05:29:00,
2013-02-14 00:31:00,29.6,26.5,29.81,SSW,193,5.0,7.0,88,0.00,,,0.00,Wunderground v.1.15,2013-02-14 05:31:00,
2013-02-14 00:34:00,29.6,26.5,29.81,SE,134,5.0,7.0,88,0.00,,,0.00,Wunderground v.1.15,2013-02-14 05:34:00,
2013-02-14 00:36:00,29.6,26.5,29.81,South,189,5.0,7.0,88,0.00,,,0.00,Wunderground v.1.15,2013-02-14 05:36:00,
2013-02-14 00:37:00,29.6,26.5,29.81,SSW,210,5.0,7.0,88,0.00,,,0.00,Wunderground v.1.15,2013-02-14 05:37:00,
2013-02-14 00:41:00,29.6,26.5,29.81,SSE,149,5.0,5.0,88,0.00,,,0.00,Wunderground v.1.15,2013-02-14 05:41:00,
2013-02-14 00:42:00,29.5,26.4,29.81,South,171,5.0,5.0,88,0.00,,,0.00,Wunderground v.1.15,2013-02-14 05:42:00,
2013-02-14 00:46:00,29.5,26.4,29.81,SW,216,5.0,5.0,88,0.00,,,0.00,Wunderground v.1.15,2013-02-14 05:46:00,
2013-02-14 00:47:00,29.4,26.3,29.81,SSW,198,5.0,6.0,88,0.00,,,0.00,Wunderground v.1.15,2013-02-14 05:47:00,
2013-02-14 00:50:00,29.4,26.3,29.81,SSW,204,5.0,5.0,88,0.00,,,0.00,Wunderground v.1.15,2013-02-14 05:50:00,
2013-02-14 00:51:00,29.4,26.6,29.80,SSW,200,5.0,5.0,89,0.00,,,0.00,Wunderground v.1.15,2013-02-14 05:51:00,
2013-02-14 00:52:00,29.4,26.6,29.80,South,187,4.0,5.0,89,0.00,,,0.00,Wunderground v.1.15,2013-02-14 05:52:00,
2013-02-14 00:55:00,29.5,26.7,29.80,SW,218,5.0,6.0,89,0.00,,,0.00,Wunderground v.1.15,2013-02-14 05:55:00,
2013-02-14 00:56:00,29.4,26.6,29.80,SSW,193,5.0,6.0,89,0.00,,,0.00,Wunderground v.1.15,2013-02-14 05:56:00,
2013-02-14 00:57:00,29.5,26.7,29.80,South,185,5.0,6.0,89,0.00,,,0.00,Wunderground v.1.15,2013-02-14 05:57:00,
2013-02-14 01:01:00,29.5,26.7,29.80,SSW,201,5.0,6.0,89,0.00,,,0.00,Wunderground v.1.15,2013-02-14 06:01:00,
2013-02-14 01:03:00,29.4,26.6,29.80,SW,219,5.0,6.0,89,0.00,,,0.00,Wunderground v.1.15,2013-02-14 06:03:00,
2013-02-14 01:05:00,29.4,26.6,29.81,SW,220,5.0,6.0,89,0.00,,,0.00,Wunderground v.1.15,2013-02-14 06:05:00,
2013-02-14 01:07:00,29.5,26.7,29.81,SW,224,5.0,6.0,89,0.00,,,0.00,Wunderground v.1.15,2013-02-14 06:07:00,
2013-02-14 01:08:00,29.5,26.7,29.80,SSW,207,5.0,6.0,89,0.00,,,0.00,Wunderground v.1.15,2013-02-14 06:08:00,
2013-02-14 01:09:00,29.5,26.7,29.81,SW,216,5.0,6.0,89,0.00,,,0.00,Wunderground v.1.15,2013-02-14 06:09:00,
2013-02-14 01:11:00,29.5,26.7,29.81,SSW,201,5.0,6.0,89,0.00,,,0.00,Wunderground v.1.15,2013-02-14 06:11:00,
2013-02-14 01:12:00,29.5,26.7,29.81,SSW,194,5.0,6.0,89,0.00,,,0.00,Wunderground v.1.15,2013-02-14 06:12:00,
2013-02-14 01:13:00,29.5,26.7,29.81,SSW,201,5.0,6.0,89,0.00,,,0.00,Wunderground v.1.15,2013-02-14 06:13:00,
2013-02-14 01:16:00,29.4,26.6,29.80,SSW,209,5.0,6.0,89,0.00,,,0.00,Wunderground v.1.15,2013-02-14 06:16:00,
2013-02-14 01:18:00,29.4,26.6,29.80,SSW,201,5.0,6.0,89,0.00,,,0.00,Wunderground v.1.15,2013-02-14 06:18:00,
2013-02-14 01:20:00,29.4,26.6,29.80,South,190,5.0,6.0,89,0.00,,,0.00,Wunderground v.1.15,2013-02-14 06:20:00,
2013-02-14 01:23:00,29.4,26.6,29.80,SSW,198,5.0,6.0,89,0.00,,,0.00,Wunderground v.1.15,2013-02-14 06:23:00,
2013-02-14 01:25:00,29.3,26.5,29.80,SW,224,4.0,6.0,89,0.00,,,0.00,Wunderground v.1.15,2013-02-14 06:25:00,
2013-02-14 01:26:00,29.3,26.5,29.80,SSW,213,4.0,6.0,89,0.00,,,0.00,Wunderground v.1.15,2013-02-14 06:26:00,
2013-02-14 01:28:00,29.3,26.5,29.80,SSW,203,4.0,6.0,89,0.00,,,0.00,Wunderground v.1.15,2013-02-14 06:28:00,
2013-02-14 01:31:00,29.3,26.5,29.80,South,169,4.0,6.0,89,0.00,,,0.00,Wunderground v.1.15,2013-02-14 06:31:00,
2013-02-14 01:33:00,29.3,26.5,29.80,SW,219,4.0,6.0,89,0.00,,,0.00,Wunderground v.1.15,2013-02-14 06:33:00,
2013-02-14 01:36:00,29.3,26.5,29.81,SW,216,4.0,6.0,89,0.00,,,0.00,Wunderground v.1.15,2013-02-14 06:36:00,
2013-02-14 01:38:00,29.2,26.4,29.80,SSW,213,4.0,6.0,89,0.00,,,0.00,Wunderground v.1.15,2013-02-14 06:38:00,
2013-02-14 01:40:00,29.3,26.5,29.80,SW,216,4.0,6.0,89,0.00,,,0.00,Wunderground v.1.15,2013-02-14 06:40:00,
2013-02-14 01:43:00,29.2,26.4,29.81,SSW,213,4.0,6.0,89,0.00,,,0.00,Wunderground v.1.15,2013-02-14 06:43:00,
2013-02-14 01:46:00,29.2,26.4,29.80,SSW,212,4.0,6.0,89,0.00,,,0.00,Wunderground v.1.15,2013-02-14 06:46:00,
2013-02-14 01:48:00,29.2,26.4,29.81,SSW,196,4.0,6.0,89,0.00,,,0.00,Wunderground v.1.15,2013-02-14 06:48:00,
2013-02-14 01:50:00,29.1,26.3,29.80,SSW,192,4.0,6.0,89,0.00,,,0.00,Wunderground v.1.15,2013-02-14 06:50:00,
2013-02-14 01:55:00,29.1,26.3,29.80,SSW,212,4.0,6.0,89,0.00,,,0.00,Wunderground v.1.15,2013-02-14 06:55:00,
2013-02-14 01:56:00,29.1,26.3,29.80,SSW,199,5.0,7.0,89,0.00,,,0.00,Wunderground v.1.15,2013-02-14 06:56:00,
2013-02-14 02:01:00,29.1,26.3,29.80,SSW,199,5.0,5.0,89,0.00,,,0.00,Wunderground v.1.15,2013-02-14 07:01:00,
2013-02-14 02:04:00,29.1,26.5,29.80,SSW,205,5.0,6.0,90,0.00,,,0.00,Wunderground v.1.15,2013-02-14 07:04:00,
2013-02-14 02:06:00,29.1,26.3,29.80,SSW,211,5.0,6.0,89,0.00,,,0.00,Wunderground v.1.15,2013-02-14 07:06:00,
2013-02-14 02:07:00,29.1,26.3,29.80,SSW,198,5.0,6.0,89,0.00,,,0.00,Wunderground v.1.15,2013-02-14 07:07:00,
2013-02-14 02:08:00,29.1,26.3,29.80,SSW,199,5.0,6.0,89,0.00,,,0.00,Wunderground v.1.15,2013-02-14 07:08:00,
2013-02-14 02:11:00,29.0,26.2,29.80,SSW,196,5.0,5.0,89,0.00,,,0.00,Wunderground v.1.15,2013-02-14 07:11:00,
2013-02-14 02:14:00,29.0,26.4,29.80,SSW,194,5.0,5.0,90,0.00,,,0.00,Wunderground v.1.15,2013-02-14 07:14:00,
2013-02-14 02:15:00,28.9,26.3,29.80,SSW,201,5.0,5.0,90,0.00,,,0.00,Wunderground v.1.15,2013-02-14 07:15:00,
2013-02-14 02:16:00,28.9,26.3,29.80,SSW,194,5.0,5.0,90,0.00,,,0.00,Wunderground v.1.15,2013-02-14 07:16:00,
2013-02-14 02:19:00,28.9,26.3,29.80,South,189,5.0,5.0,90,0.00,,,0.00,Wunderground v.1.15,2013-02-14 07:19:00,
2013-02-14 02:20:00,28.9,26.3,29.80,SW,216,5.0,5.0,90,0.00,,,0.00,Wunderground v.1.15,2013-02-14 07:20:00,
2013-02-14 02:21:00,28.9,26.3,29.80,SSW,204,5.0,5.0,90,0.00,,,0.00,Wunderground v.1.15,2013-02-14 07:21:00,
2013-02-14 02:24:00,28.8,26.2,29.80,SSW,201,5.0,5.0,90,0.00,,,0.00,Wunderground v.1.15,2013-02-14 07:24:00,
2013-02-14 02:28:00,28.7,26.1,29.80,South,189,4.0,5.0,90,0.00,,,0.00,Wunderground v.1.15,2013-02-14 07:28:00,
2013-02-14 02:29:00,28.6,26.0,29.80,SSW,210,4.0,5.0,90,0.00,,,0.00,Wunderground v.1.15,2013-02-14 07:29:00,
2013-02-14 02:30:00,28.6,26.0,29.80,SSW,198,4.0,4.0,90,0.00,,,0.00,Wunderground v.1.15,2013-02-14 07:30:00,
2013-02-14 02:33:00,28.6,26.0,29.80,SW,223,4.0,5.0,90,0.00,,,0.00,Wunderground v.1.15,2013-02-14 07:33:00,
2013-02-14 02:36:00,28.7,26.1,29.80,SW,216,4.0,5.0,90,0.00,,,0.00,Wunderground v.1.15,2013-02-14 07:36:00,
2013-02-14 02:37:00,28.7,26.1,29.80,SSW,210,4.0,5.0,90,0.00,,,0.00,Wunderground v.1.15,2013-02-14 07:37:00,
2013-02-14 02:38:00,28.7,26.1,29.80,SSW,212,4.0,5.0,90,0.00,,,0.00,Wunderground v.1.15,2013-02-14 07:38:00,
2013-02-14 02:40:00,28.7,26.1,29.80,SW,234,4.0,5.0,90,0.00,,,0.00,Wunderground v.1.15,2013-02-14 07:40:00,
2013-02-14 02:41:00,28.7,26.1,29.80,SSW,199,4.0,5.0,90,0.00,,,0.00,Wunderground v.1.15,2013-02-14 07:41:00,
2013-02-14 02:42:00,28.7,26.4,29.80,SSW,212,4.0,5.0,91,0.00,,,0.00,Wunderground v.1.15,2013-02-14 07:42:00,
2013-02-14 02:46:00,28.8,26.5,29.80,SSW,213,4.0,5.0,91,0.00,,,0.00,Wunderground v.1.15,2013-02-14 07:46:00,
2013-02-14 02:47:00,28.8,26.5,29.80,SW,214,4.0,5.0,91,0.00,,,0.00,Wunderground v.1.15,2013-02-14 07:47:00,
2013-02-14 02:48:00,28.8,26.5,29.80,SSW,199,4.0,5.0,91,0.00,,,0.00,Wunderground v.1.15,2013-02-14 07:48:00,
2013-02-14 02:53:00,28.9,26.3,29.80,SSW,201,5.0,5.0,90,0.00,,,0.00,Wunderground v.1.15,2013-02-14 07:53:00,
2013-02-14 02:55:00,28.9,26.3,29.80,SSW,207,5.0,5.0,90,0.00,,,0.00,Wunderground v.1.15,2013-02-14 07:55:00,
2013-02-14 03:00:00,28.9,26.6,29.79,SSW,201,5.0,5.0,91,0.00,,,0.00,Wunderground v.1.15,2013-02-14 08:00:00,
2013-02-14 03:01:00,28.9,26.3,29.79,South,186,5.0,5.0,90,0.00,,,0.00,Wunderground v.1.15,2013-02-14 08:01:00,
2013-02-14 03:03:00,28.9,26.6,29.79,SSW,210,5.0,5.0,91,0.00,,,0.00,Wunderground v.1.15,2013-02-14 08:03:00,
2013-02-14 03:06:00,28.8,26.2,29.79,SSW,205,5.0,5.0,90,0.00,,,0.00,Wunderground v.1.15,2013-02-14 08:06:00,
2013-02-14 03:07:00,28.8,26.5,29.79,SSW,207,5.0,5.0,91,0.00,,,0.00,Wunderground v.1.15,2013-02-14 08:07:00,
2013-02-14 03:08:00,28.8,26.5,29.79,SSW,202,5.0,5.0,91,0.00,,,0.00,Wunderground v.1.15,2013-02-14 08:08:00,
2013-02-14 03:13:00,28.7,26.4,29.79,SSW,212,4.0,5.0,91,0.00,,,0.00,Wunderground v.1.15,2013-02-14 08:13:00,
2013-02-14 03:15:00,28.6,26.3,29.79,South,190,4.0,5.0,91,0.00,,,0.00,Wunderground v.1.15,2013-02-14 08:15:00,
2013-02-14 03:16:00,28.6,26.3,29.79,SSW,209,4.0,5.0,91,0.00,,,0.00,Wunderground v.1.15,2013-02-14 08:16:00,
2013-02-14 03:20:00,28.6,26.3,29.79,SSW,198,4.0,5.0,91,0.00,,,0.00,Wunderground v.1.15,2013-02-14 08:20:00,
2013-02-14 03:21:00,28.6,26.3,29.79,SSW,207,4.0,5.0,91,0.00,,,0.00,Wunderground v.1.15,2013-02-14 08:21:00,
2013-02-14 03:23:00,28.6,26.3,29.79,SSW,213,4.0,5.0,91,0.00,,,0.00,Wunderground v.1.15,2013-02-14 08:23:00,
2013-02-14 03:24:00,28.6,26.3,29.79,SSW,201,4.0,5.0,91,0.00,,,0.00,Wunderground v.1.15,2013-02-14 08:24:00,
2013-02-14 03:26:00,28.6,26.3,29.79,SW,216,4.0,5.0,91,0.00,,,0.00,Wunderground v.1.15,2013-02-14 08:26:00,
2013-02-14 03:29:00,28.6,26.3,29.79,SSW,210,4.0,5.0,91,0.00,,,0.00,Wunderground v.1.15,2013-02-14 08:29:00,
2013-02-14 03:30:00,28.6,26.3,29.79,SW,219,4.0,4.0,91,0.00,,,0.00,Wunderground v.1.15,2013-02-14 08:30:00,
2013-02-14 03:31:00,28.6,26.3,29.79,SSW,207,4.0,5.0,91,0.00,,,0.00,Wunderground v.1.15,2013-02-14 08:31:00,
2013-02-14 03:34:00,28.5,26.2,29.79,SSE,168,4.0,5.0,91,0.00,,,0.00,Wunderground v.1.15,2013-02-14 08:34:00,
2013-02-14 03:35:00,28.5,26.2,29.79,SW,227,4.0,5.0,91,0.00,,,0.00,Wunderground v.1.15,2013-02-14 08:35:00,
2013-02-14 03:39:00,28.6,26.3,29.79,SW,218,4.0,6.0,91,0.00,,,0.00,Wunderground v.1.15,2013-02-14 08:39:00,
2013-02-14 03:40:00,28.6,26.3,29.79,SSW,201,4.0,4.0,91,0.00,,,0.00,Wunderground v.1.15,2013-02-14 08:40:00,
2013-02-14 03:41:00,28.5,26.2,29.79,SW,214,4.0,4.0,91,0.00,,,0.00,Wunderground v.1.15,2013-02-14 08:41:00,
2013-02-14 03:42:00,28.5,26.2,29.79,SSW,199,4.0,5.0,91,0.00,,,0.00,Wunderground v.1.15,2013-02-14 08:42:00,
2013-02-14 03:46:00,28.5,26.2,29.79,SW,223,5.0,6.0,91,0.00,,,0.00,Wunderground v.1.15,2013-02-14 08:46:00,
2013-02-14 03:47:00,28.6,26.3,29.79,SW,227,5.0,6.0,91,0.00,,,0.00,Wunderground v.1.15,2013-02-14 08:47:00,
2013-02-14 03:50:00,28.5,26.2,29.79,SW,217,5.0,5.0,91,0.00,,,0.00,Wunderground v.1.15,2013-02-14 08:50:00,
2013-02-14 03:52:00,28.5,26.2,29.79,SW,225,5.0,6.0,91,0.00,,,0.00,Wunderground v.1.15,2013-02-14 08:52:00,
2013-02-14 03:53:00,28.5,26.2,29.79,SW,223,5.0,6.0,91,0.00,,,0.00,Wunderground v.1.15,2013-02-14 08:53:00,
2013-02-14 03:56:00,28.4,26.1,29.79,SW,220,5.0,6.0,91,0.00,,,0.00,Wunderground v.1.15,2013-02-14 08:56:00,
2013-02-14 03:58:00,28.4,26.1,29.79,SW,220,6.0,6.0,91,0.00,,,0.00,Wunderground v.1.15,2013-02-14 08:58:00,
2013-02-14 04:03:00,28.5,26.5,29.79,SW,220,6.0,7.0,92,0.00,,,0.00,Wunderground v.1.15,2013-02-14 09:03:00,
2013-02-14 04:04:00,28.5,26.5,29.79,SW,219,6.0,7.0,92,0.00,,,0.00,Wunderground v.1.15,2013-02-14 09:04:00,
2013-02-14 04:07:00,28.6,26.6,29.79,SSW,201,6.0,7.0,92,0.00,,,0.00,Wunderground v.1.15,2013-02-14 09:07:00,
2013-02-14 04:09:00,28.6,26.6,29.79,SW,214,6.0,6.0,92,0.00,,,0.00,Wunderground v.1.15,2013-02-14 09:09:00,
2013-02-14 04:11:00,28.6,26.6,29.79,SSW,202,6.0,6.0,92,0.00,,,0.00,Wunderground v.1.15,2013-02-14 09:11:00,
2013-02-14 04:12:00,28.7,26.7,29.79,SSW,193,6.0,6.0,92,0.00,,,0.00,Wunderground v.1.15,2013-02-14 09:12:00,
2013-02-14 04:16:00,28.6,26.6,29.79,South,186,5.0,6.0,92,0.00,,,0.00,Wunderground v.1.15,2013-02-14 09:16:00,
2013-02-14 04:17:00,28.6,26.6,29.79,SSW,211,5.0,6.0,92,0.00,,,0.00,Wunderground v.1.15,2013-02-14 09:17:00,
2013-02-14 04:20:00,28.5,26.2,29.79,SSW,204,4.0,4.0,91,0.00,,,0.00,Wunderground v.1.15,2013-02-14 09:20:00,
2013-02-14 04:22:00,28.5,26.5,29.79,South,190,4.0,5.0,92,0.00,,,0.00,Wunderground v.1.15,2013-02-14 09:22:00,
2013-02-14 04:23:00,28.4,26.4,29.79,SSW,203,4.0,6.0,92,0.00,,,0.00,Wunderground v.1.15,2013-02-14 09:23:00,
2013-02-14 04:25:00,28.4,26.4,29.79,SSW,213,4.0,6.0,92,0.00,,,0.00,Wunderground v.1.15,2013-02-14 09:25:00,
2013-02-14 04:26:00,28.4,26.4,29.79,South,186,4.0,6.0,92,0.00,,,0.00,Wunderground v.1.15,2013-02-14 09:26:00,
2013-02-14 04:28:00,28.4,26.4,29.79,SSW,194,4.0,6.0,92,0.00,,,0.00,Wunderground v.1.15,2013-02-14 09:28:00,
2013-02-14 04:30:00,28.4,26.4,29.79,South,189,4.0,4.0,92,0.00,,,0.00,Wunderground v.1.15,2013-02-14 09:30:00,
2013-02-14 04:33:00,28.3,26.3,29.79,SSW,209,4.0,4.0,92,0.00,,,0.00,Wunderground v.1.15,2013-02-14 09:33:00,
2013-02-14 04:35:00,28.3,26.3,29.79,South,178,4.0,5.0,92,0.00,,,0.00,Wunderground v.1.15,2013-02-14 09:35:00,
2013-02-14 04:37:00,28.3,26.3,29.79,South,184,4.0,5.0,92,0.00,,,0.00,Wunderground v.1.15,2013-02-14 09:37:00,
2013-02-14 04:39:00,28.2,26.2,29.79,SE,142,4.0,5.0,92,0.00,,,0.00,Wunderground v.1.15,2013-02-14 09:39:00,
2013-02-14 04:41:00,28.1,26.1,29.79,South,180,4.0,5.0,92,0.00,,,0.00,Wunderground v.1.15,2013-02-14 09:41:00,
2013-02-14 04:42:00,28.2,26.2,29.79,SSW,203,4.0,5.0,92,0.00,,,0.00,Wunderground v.1.15,2013-02-14 09:42:00,
2013-02-14 04:45:00,28.2,26.2,29.79,SSW,209,4.0,6.0,92,0.00,,,0.00,Wunderground v.1.15,2013-02-14 09:45:00,
2013-02-14 04:48:00,28.2,26.2,29.79,SW,225,4.0,6.0,92,0.00,,,0.00,Wunderground v.1.15,2013-02-14 09:48:00,
2013-02-14 04:50:00,28.3,26.3,29.79,SW,225,4.0,5.0,92,0.00,,,0.00,Wunderground v.1.15,2013-02-14 09:50:00,
2013-02-14 04:51:00,28.3,26.3,29.79,SW,223,5.0,6.0,92,0.00,,,0.00,Wunderground v.1.15,2013-02-14 09:51:00,
2013-02-14 04:55:00,28.3,26.3,29.79,SW,227,5.0,6.0,92,0.00,,,0.00,Wunderground v.1.15,2013-02-14 09:55:00,
2013-02-14 04:58:00,28.3,26.3,29.79,SW,216,5.0,6.0,92,0.00,,,0.00,Wunderground v.1.15,2013-02-14 09:58:00,
2013-02-14 04:59:00,28.3,26.3,29.79,SW,218,5.0,5.0,92,0.00,,,0.00,Wunderground v.1.15,2013-02-14 09:59:00,
2013-02-14 05:01:00,28.3,26.3,29.79,SSW,200,5.0,5.0,92,0.00,,,0.00,Wunderground v.1.15,2013-02-14 10:01:00,
2013-02-14 05:04:00,28.3,26.3,29.79,South,182,5.0,5.0,92,0.00,,,0.00,Wunderground v.1.15,2013-02-14 10:04:00,
2013-02-14 05:06:00,28.3,26.3,29.79,SSW,203,5.0,5.0,92,0.00,,,0.00,Wunderground v.1.15,2013-02-14 10:06:00,
2013-02-14 05:08:00,28.3,26.3,29.79,SSW,204,5.0,6.0,92,0.00,,,0.00,Wunderground v.1.15,2013-02-14 10:08:00,
2013-02-14 05:09:00,28.3,26.3,29.79,SSW,201,5.0,5.0,92,0.00,,,0.00,Wunderground v.1.15,2013-02-14 10:09:00,
2013-02-14 05:11:00,28.3,26.3,29.79,SW,218,4.0,5.0,92,0.00,,,0.00,Wunderground v.1.15,2013-02-14 10:11:00,
2013-02-14 05:13:00,28.3,26.5,29.79,SW,216,4.0,5.0,93,0.00,,,0.00,Wunderground v.1.15,2013-02-14 10:13:00,
2013-02-14 05:15:00,28.3,26.5,29.79,SW,216,4.0,5.0,93,0.00,,,0.00,Wunderground v.1.15,2013-02-14 10:15:00,
2013-02-14 05:18:00,28.3,26.5,29.79,SSW,213,4.0,5.0,93,0.00,,,0.00,Wunderground v.1.15,2013-02-14 10:18:00,
2013-02-14 05:20:00,28.3,26.5,29.79,SSW,199,4.0,4.0,93,0.00,,,0.00,Wunderground v.1.15,2013-02-14 10:20:00,
2013-02-14 05:21:00,28.3,26.5,29.79,SSW,201,4.0,4.0,93,0.00,,,0.00,Wunderground v.1.15,2013-02-14 10:21:00,
2013-02-14 05:24:00,28.2,26.4,29.79,South,171,4.0,4.0,93,0.00,,,0.00,Wunderground v.1.15,2013-02-14 10:24:00,
2013-02-14 05:26:00,28.2,26.4,29.79,SSE,153,4.0,4.0,93,0.00,,,0.00,Wunderground v.1.15,2013-02-14 10:26:00,
2013-02-14 05:28:00,28.1,26.3,29.79,South,182,4.0,5.0,93,0.00,,,0.00,Wunderground v.1.15,2013-02-14 10:28:00,
2013-02-14 05:29:00,28.1,26.3,29.79,South,175,4.0,5.0,93,0.00,,,0.00,Wunderground v.1.15,2013-02-14 10:29:00,
2013-02-14 05:31:00,28.1,26.3,29.79,SSE,154,4.0,5.0,93,0.00,,,0.00,Wunderground v.1.15,2013-02-14 10:31:00,
2013-02-14 05:33:00,28.1,26.3,29.79,South,189,4.0,5.0,93,0.00,,,0.00,Wunderground v.1.15,2013-02-14 10:33:00,
2013-02-14 05:34:00,28.1,26.3,29.79,SSW,199,4.0,5.0,93,0.00,,,0.00,Wunderground v.1.15,2013-02-14 10:34:00,
2013-02-14 05:39:00,28.3,26.5,29.79,SW,216,5.0,5.0,93,0.00,,,0.00,Wunderground v.1.15,2013-02-14 10:39:00,
2013-02-14 05:42:00,28.3,26.5,29.79,SW,214,5.0,5.0,93,0.00,,,0.00,Wunderground v.1.15,2013-02-14 10:42:00,
2013-02-14 05:44:00,28.4,26.6,29.79,SSW,213,5.0,5.0,93,0.00,,,0.00,Wunderground v.1.15,2013-02-14 10:44:00,
2013-02-14 05:45:00,28.4,26.6,29.79,SSW,201,5.0,5.0,93,0.00,,,0.00,Wunderground v.1.15,2013-02-14 10:45:00,
2013-02-14 05:47:00,28.4,26.6,29.79,SSW,192,5.0,5.0,93,0.00,,,0.00,Wunderground v.1.15,2013-02-14 10:47:00,
2013-02-14 05:52:00,28.3,26.5,29.79,SSE,159,5.0,5.0,93,0.00,,,0.00,Wunderground v.1.15,2013-02-14 10:52:00,
2013-02-14 05:53:00,28.3,26.5,29.79,South,180,5.0,5.0,93,0.00,,,0.00,Wunderground v.1.15,2013-02-14 10:53:00,
2013-02-14 05:56:00,28.3,26.5,29.79,SSE,147,5.0,5.0,93,0.00,,,0.00,Wunderground v.1.15,2013-02-14 10:56:00,
2013-02-14 05:57:00,28.3,26.5,29.79,SSW,206,5.0,5.0,93,0.00,,,0.00,Wunderground v.1.15,2013-02-14 10:57:00,
2013-02-14 06:01:00,28.3,26.5,29.79,SW,218,5.0,5.0,93,0.00,,,0.00,Wunderground v.1.15,2013-02-14 11:01:00,
2013-02-14 06:04:00,28.5,26.7,29.79,SW,218,4.0,5.0,93,0.00,,,0.00,Wunderground v.1.15,2013-02-14 11:04:00,
2013-02-14 06:06:00,28.5,26.7,29.79,SW,221,4.0,6.0,93,0.00,,,0.00,Wunderground v.1.15,2013-02-14 11:06:00,
2013-02-14 06:08:00,28.5,26.7,29.79,SW,219,5.0,6.0,93,0.00,,,0.00,Wunderground v.1.15,2013-02-14 11:08:00,
2013-02-14 06:09:00,28.6,26.8,29.79,SSW,213,4.0,4.0,93,0.00,,,0.00,Wunderground v.1.15,2013-02-14 11:09:00,
2013-02-14 06:11:00,28.6,26.8,29.79,SW,216,4.0,4.0,93,0.00,,,0.00,Wunderground v.1.15,2013-02-14 11:11:00,
2013-02-14 06:12:00,28.6,26.8,29.79,SW,223,4.0,5.0,93,0.00,,,0.00,Wunderground v.1.15,2013-02-14 11:12:00,
2013-02-14 06:13:00,28.6,26.8,29.79,SSW,210,5.0,5.0,93,0.00,,,0.00,Wunderground v.1.15,2013-02-14 11:13:00,
2013-02-14 06:16:00,28.7,26.9,29.79,SSW,204,5.0,6.0,93,0.00,,,0.00,Wunderground v.1.15,2013-02-14 11:16:00,
2013-02-14 06:18:00,28.7,26.9,29.79,SSE,154,5.0,6.0,93,0.00,,,0.00,Wunderground v.1.15,2013-02-14 11:18:00,
2013-02-14 06:21:00,28.7,26.9,29.78,South,175,5.0,5.0,93,0.00,,,0.00,Wunderground v.1.15,2013-02-14 11:21:00,
2013-02-14 06:23:00,28.7,26.9,29.79,South,183,5.0,5.0,93,0.00,,,0.00,Wunderground v.1.15,2013-02-14 11:23:00,
2013-02-14 06:24:00,28.7,26.9,29.79,South,171,5.0,5.0,93,0.00,,,0.00,Wunderground v.1.15,2013-02-14 11:24:00,
2013-02-14 06:27:00,28.7,26.9,29.78,South,171,4.0,5.0,93,0.00,,,0.00,Wunderground v.1.15,2013-02-14 11:27:00,
2013-02-14 06:29:00,28.7,26.9,29.79,South,187,4.0,5.0,93,0.00,,,0.00,Wunderground v.1.15,2013-02-14 11:29:00,
2013-02-14 06:30:00,28.7,26.9,29.79,SSW,199,4.0,5.0,93,0.00,,,0.00,Wunderground v.1.15,2013-02-14 11:30:00,
2013-02-14 06:34:00,28.8,27.0,29.79,South,187,4.0,5.0,93,0.00,,,0.00,Wunderground v.1.15,2013-02-14 11:34:00,
2013-02-14 06:35:00,28.8,27.0,29.79,South,187,4.0,5.0,93,0.00,,,0.00,Wunderground v.1.15,2013-02-14 11:35:00,
2013-02-14 06:37:00,28.8,27.0,29.79,South,191,4.0,5.0,93,0.00,,,0.00,Wunderground v.1.15,2013-02-14 11:37:00,
2013-02-14 06:40:00,28.8,27.0,29.79,SSW,199,4.0,4.0,93,0.00,,,0.00,Wunderground v.1.15,2013-02-14 11:40:00,
2013-02-14 06:41:00,28.8,27.0,29.79,SSW,196,4.0,4.0,93,0.00,,,0.00,Wunderground v.1.15,2013-02-14 11:41:00,
2013-02-14 06:46:00,28.8,27.0,29.79,SSW,193,4.0,4.0,93,0.00,,,0.00,Wunderground v.1.15,2013-02-14 11:46:00,
2013-02-14 06:47:00,28.8,27.0,29.79,South,182,4.0,4.0,93,0.00,,,0.00,Wunderground v.1.15,2013-02-14 11:47:00,
2013-02-14 06:48:00,28.8,27.0,29.79,SSW,204,4.0,4.0,93,0.00,,,0.00,Wunderground v.1.15,2013-02-14 11:48:00,
2013-02-14 06:52:00,28.8,27.0,29.79,SSW,193,4.0,4.0,93,0.00,,,0.00,Wunderground v.1.15,2013-02-14 11:52:00,
2013-02-14 06:54:00,28.8,27.0,29.79,SSW,192,4.0,4.0,93,0.00,,,0.00,Wunderground v.1.15,2013-02-14 11:54:00,
2013-02-14 06:55:00,28.8,27.0,29.79,SSE,150,3.0,4.0,93,0.00,,,0.00,Wunderground v.1.15,2013-02-14 11:55:00,
2013-02-14 06:59:00,28.8,27.0,29.79,SSW,201,3.0,4.0,93,0.00,,,0.00,Wunderground v.1.15,2013-02-14 11:59:00,
2013-02-14 07:01:00,28.9,27.1,29.79,SSW,203,3.0,3.0,93,0.00,,,0.00,Wunderground v.1.15,2013-02-14 12:01:00,
2013-02-14 07:05:00,28.9,27.1,29.79,SSW,213,3.0,3.0,93,0.00,,,0.00,Wunderground v.1.15,2013-02-14 12:05:00,
2013-02-14 07:07:00,28.9,27.1,29.79,SSW,193,3.0,3.0,93,0.00,,,0.00,Wunderground v.1.15,2013-02-14 12:07:00,
2013-02-14 07:09:00,29.0,27.2,29.79,South,189,3.0,3.0,93,0.00,,,0.00,Wunderground v.1.15,2013-02-14 12:09:00,
2013-02-14 07:12:00,29.0,27.2,29.79,South,172,3.0,4.0,93,0.00,,,0.00,Wunderground v.1.15,2013-02-14 12:12:00,
2013-02-14 07:15:00,29.0,27.2,29.79,South,183,4.0,5.0,93,0.00,,,0.00,Wunderground v.1.15,2013-02-14 12:15:00,
2013-02-14 07:19:00,29.1,27.3,29.79,South,186,4.0,5.0,93,0.00,,,0.00,Wunderground v.1.15,2013-02-14 12:19:00,
2013-02-14 07:20:00,29.2,27.4,29.79,SSW,196,4.0,4.0,93,0.00,,,0.00,Wunderground v.1.15,2013-02-14 12:20:00,
2013-02-14 07:23:00,29.2,27.4,29.79,SSW,201,4.0,4.0,93,0.00,,,0.00,Wunderground v.1.15,2013-02-14 12:23:00,
2013-02-14 07:25:00,29.2,27.4,29.79,South,189,4.0,4.0,93,0.00,,,0.00,Wunderground v.1.15,2013-02-14 12:25:00,
2013-02-14 07:26:00,29.2,27.4,29.79,SSW,205,4.0,4.0,93,0.00,,,0.00,Wunderground v.1.15,2013-02-14 12:26:00,
2013-02-14 07:28:00,29.3,27.5,29.79,SSW,201,4.0,4.0,93,0.00,,,0.00,Wunderground v.1.15,2013-02-14 12:28:00,
2013-02-14 07:30:00,29.3,27.5,29.79,South,183,4.0,4.0,93,0.00,,,0.00,Wunderground v.1.15,2013-02-14 12:30:00,
2013-02-14 07:32:00,29.3,27.5,29.79,SSE,161,4.0,6.0,93,0.00,,,0.00,Wunderground v.1.15,2013-02-14 12:32:00,
2013-02-14 07:37:00,29.4,27.6,29.79,South,190,4.0,6.0,93,0.00,,,0.00,Wunderground v.1.15,2013-02-14 12:37:00,
2013-02-14 07:38:00,29.4,27.6,29.79,South,182,4.0,6.0,93,0.00,,,0.00,Wunderground v.1.15,2013-02-14 12:38:00,
2013-02-14 07:39:00,29.4,27.6,29.79,South,173,4.0,6.0,93,0.00,,,0.00,Wunderground v.1.15,2013-02-14 12:39:00,
2013-02-14 07:41:00,29.5,27.7,29.79,SSE,149,4.0,6.0,93,0.00,,,0.00,Wunderground v.1.15,2013-02-14 12:41:00,
2013-02-14 07:44:00,29.5,27.7,29.79,SSW,198,4.0,6.0,93,0.00,,,0.00,Wunderground v.1.15,2013-02-14 12:44:00,
2013-02-14 07:46:00,29.6,27.8,29.79,South,190,5.0,6.0,93,0.00,,,0.00,Wunderground v.1.15,2013-02-14 12:46:00,
2013-02-14 07:47:00,29.6,27.8,29.79,South,186,5.0,6.0,93,0.00,,,0.00,Wunderground v.1.15,2013-02-14 12:47:00,
2013-02-14 07:48:00,29.6,27.8,29.79,South,182,5.0,6.0,93,0.00,,,0.00,Wunderground v.1.15,2013-02-14 12:48:00,
2013-02-14 07:49:00,29.6,27.8,29.79,SSW,193,5.0,6.0,93,0.00,,,0.00,Wunderground v.1.15,2013-02-14 12:49:00,
2013-02-14 07:53:00,29.6,27.8,29.79,SE,139,5.0,5.0,93,0.00,,,0.00,Wunderground v.1.15,2013-02-14 12:53:00,
2013-02-14 07:54:00,29.7,27.9,29.79,South,185,5.0,5.0,93,0.00,,,0.00,Wunderground v.1.15,2013-02-14 12:54:00,
2013-02-14 07:56:00,29.7,27.9,29.79,SSW,204,5.0,5.0,93,0.00,,,0.00,Wunderground v.1.15,2013-02-14 12:56:00,
2013-02-14 08:00:00,29.8,28.0,29.79,SSE,166,5.0,5.0,93,0.00,,,0.00,Wunderground v.1.15,2013-02-14 13:00:00,
2013-02-14 08:01:00,29.8,28.0,29.79,South,190,4.0,5.0,93,0.00,,,0.00,Wunderground v.1.15,2013-02-14 13:01:00,
2013-02-14 08:06:00,29.9,28.1,29.79,SSW,193,4.0,7.0,93,0.00,,,0.00,Wunderground v.1.15,2013-02-14 13:06:00,
2013-02-14 08:07:00,30.0,28.2,29.79,South,183,5.0,7.0,93,0.00,,,0.00,Wunderground v.1.15,2013-02-14 13:07:00,
2013-02-14 08:08:00,30.0,28.2,29.79,SSE,160,5.0,8.0,93,0.00,,,0.00,Wunderground v.1.15,2013-02-14 13:08:00,
2013-02-14 08:13:00,30.1,28.3,29.79,South,187,6.0,6.0,93,0.00,,,0.00,Wunderground v.1.15,2013-02-14 13:13:00,
2013-02-14 08:17:00,30.2,28.4,29.79,South,169,6.0,7.0,93,0.00,,,0.00,Wunderground v.1.15,2013-02-14 13:17:00,
2013-02-14 08:19:00,30.2,28.4,29.79,South,190,6.0,8.0,93,0.00,,,0.00,Wunderground v.1.15,2013-02-14 13:19:00,
2013-02-14 08:24:00,30.4,28.6,29.80,SSW,194,6.0,7.0,93,0.00,,,0.00,Wunderground v.1.15,2013-02-14 13:24:00,
2013-02-14 08:25:00,30.4,28.6,29.80,South,191,7.0,7.0,93,0.00,,,0.00,Wunderground v.1.15,2013-02-14 13:25:00,
2013-02-14 08:26:00,30.4,28.6,29.80,South,186,7.0,7.0,93,0.00,,,0.00,Wunderground v.1.15,2013-02-14 13:26:00,
2013-02-14 08:28:00,30.5,28.7,29.80,SSW,212,7.0,7.0,93,0.00,,,0.00,Wunderground v.1.15,2013-02-14 13:28:00,
2013-02-14 08:33:00,30.7,28.7,29.80,SSW,212,7.0,9.0,92,0.00,,,0.00,Wunderground v.1.15,2013-02-14 13:33:00,
2013-02-14 08:35:00,30.8,28.8,29.80,SW,218,8.0,9.0,92,0.00,,,0.00,Wunderground v.1.15,2013-02-14 13:35:00,
2013-02-14 08:37:00,30.8,28.8,29.80,SSW,203,8.0,9.0,92,0.00,,,0.00,Wunderground v.1.15,2013-02-14 13:37:00,
2013-02-14 08:39:00,30.9,28.9,29.80,SSW,207,8.0,9.0,92,0.00,,,0.00,Wunderground v.1.15,2013-02-14 13:39:00,
2013-02-14 08:41:00,30.9,28.9,29.80,SSW,201,8.0,9.0,92,0.00,,,0.00,Wunderground v.1.15,2013-02-14 13:41:00,
2013-02-14 08:44:00,31.0,28.9,29.80,SSW,210,8.0,9.0,92,0.00,,,0.00,Wunderground v.1.15,2013-02-14 13:44:00,
2013-02-14 08:46:00,31.1,29.0,29.80,South,187,7.0,9.0,92,0.00,,,0.00,Wunderground v.1.15,2013-02-14 13:46:00,
2013-02-14 08:49:00,31.2,29.1,29.80,SSW,194,7.0,9.0,92,0.00,,,0.00,Wunderground v.1.15,2013-02-14 13:49:00,
2013-02-14 08:50:00,31.2,29.1,29.80,SSW,194,7.0,7.0,92,0.00,,,0.00,Wunderground v.1.15,2013-02-14 13:50:00,
2013-02-14 08:52:00,31.3,29.2,29.80,South,186,7.0,7.0,92,0.00,,,0.00,Wunderground v.1.15,2013-02-14 13:52:00,
2013-02-14 08:53:00,31.4,29.3,29.80,SSW,192,7.0,7.0,92,0.00,,,0.00,Wunderground v.1.15,2013-02-14 13:53:00,
2013-02-14 08:55:00,31.4,29.1,29.80,SW,223,6.0,8.0,91,0.00,,,0.00,Wunderground v.1.15,2013-02-14 13:55:00,
2013-02-14 08:58:00,31.5,29.2,29.80,South,185,6.0,8.0,91,0.00,,,0.00,Wunderground v.1.15,2013-02-14 13:58:00,
2013-02-14 08:59:00,31.5,29.2,29.80,SSW,196,6.0,8.0,91,0.00,,,0.00,Wunderground v.1.15,2013-02-14 13:59:00,
2013-02-14 09:00:00,31.6,29.3,29.80,SSE,166,6.0,10.0,91,0.00,,,0.00,Wunderground v.1.15,2013-02-14 14:00:00,
2013-02-14 09:01:00,31.7,29.4,29.80,SSW,196,6.0,10.0,91,0.00,,,0.00,Wunderground v.1.15,2013-02-14 14:01:00,
2013-02-14 09:05:00,31.8,29.5,29.80,SW,220,7.0,10.0,91,0.00,,,0.00,Wunderground v.1.15,2013-02-14 14:05:00,
2013-02-14 09:07:00,31.8,29.5,29.80,SW,218,7.0,10.0,91,0.00,,,0.00,Wunderground v.1.15,2013-02-14 14:07:00,
2013-02-14 09:08:00,31.9,29.6,29.80,SSW,200,7.0,10.0,91,0.00,,,0.00,Wunderground v.1.15,2013-02-14 14:08:00,
2013-02-14 09:12:00,32.0,29.7,29.80,SSW,213,7.0,7.0,91,0.00,,,0.00,Wunderground v.1.15,2013-02-14 14:12:00,
2013-02-14 09:15:00,32.1,29.8,29.80,SSW,199,7.0,9.0,91,0.00,,,0.00,Wunderground v.1.15,2013-02-14 14:15:00,
2013-02-14 09:17:00,32.2,29.9,29.79,South,186,7.0,9.0,91,0.00,,,0.00,Wunderground v.1.15,2013-02-14 14:17:00,
2013-02-14 09:20:00,32.3,29.7,29.80,SSW,204,6.0,7.0,90,0.00,,,0.00,Wunderground v.1.15,2013-02-14 14:20:00,
2013-02-14 09:22:00,32.4,29.8,29.79,SSW,192,6.0,9.0,90,0.00,,,0.00,Wunderground v.1.15,2013-02-14 14:22:00,
2013-02-14 09:25:00,32.5,29.9,29.80,SSE,155,6.0,9.0,90,0.00,,,0.00,Wunderground v.1.15,2013-02-14 14:25:00,
2013-02-14 09:26:00,32.6,30.0,29.80,SSW,207,6.0,9.0,90,0.00,,,0.00,Wunderground v.1.15,2013-02-14 14:26:00,
2013-02-14 09:28:00,32.6,30.0,29.79,South,185,6.0,9.0,90,0.00,,,0.00,Wunderground v.1.15,2013-02-14 14:28:00,
2013-02-14 09:30:00,32.7,30.1,29.80,SSW,194,6.0,6.0,90,0.00,,,0.00,Wunderground v.1.15,2013-02-14 14:30:00,
2013-02-14 09:31:00,32.7,30.1,29.80,South,179,6.0,9.0,90,0.00,,,0.00,Wunderground v.1.15,2013-02-14 14:31:00,
2013-02-14 09:35:00,32.9,30.3,29.79,SSW,206,7.0,9.0,90,0.00,,,0.00,Wunderground v.1.15,2013-02-14 14:35:00,
2013-02-14 09:36:00,32.9,30.3,29.79,SSW,209,7.0,9.0,90,0.00,,,0.00,Wunderground v.1.15,2013-02-14 14:36:00,
2013-02-14 09:37:00,32.9,30.3,29.79,SSW,205,7.0,9.0,90,0.00,,,0.00,Wunderground v.1.15,2013-02-14 14:37:00,
2013-02-14 09:40:00,33.1,30.2,29.79,SSE,148,8.0,8.0,89,0.00,,,0.00,Wunderground v.1.15,2013-02-14 14:40:00,
2013-02-14 09:42:00,33.1,30.2,29.79,SSW,205,8.0,8.0,89,0.00,,,0.00,Wunderground v.1.15,2013-02-14 14:42:00,
2013-02-14 09:45:00,33.2,30.3,29.79,South,185,7.0,8.0,89,0.00,,,0.00,Wunderground v.1.15,2013-02-14 14:45:00,
2013-02-14 09:46:00,33.2,30.3,29.79,South,189,7.0,8.0,89,0.00,,,0.00,Wunderground v.1.15,2013-02-14 14:46:00,
2013-02-14 09:48:00,33.3,30.4,29.79,SE,144,7.0,8.0,89,0.00,,,0.00,Wunderground v.1.15,2013-02-14 14:48:00,
2013-02-14 09:50:00,33.4,30.5,29.79,South,183,6.0,6.0,89,0.00,,,0.00,Wunderground v.1.15,2013-02-14 14:50:00,
2013-02-14 09:51:00,33.5,30.6,29.79,SSW,194,6.0,6.0,89,0.00,,,0.00,Wunderground v.1.15,2013-02-14 14:51:00,
2013-02-14 09:53:00,33.6,30.7,29.79,SSW,209,6.0,7.0,89,0.00,,,0.00,Wunderground v.1.15,2013-02-14 14:53:00,
2013-02-14 09:56:00,33.7,30.8,29.79,SSW,196,6.0,13.0,89,0.00,,,0.00,Wunderground v.1.15,2013-02-14 14:56:00,
2013-02-14 10:01:00,33.9,31.0,29.79,SW,216,7.0,7.0,89,0.00,,,0.00,Wunderground v.1.15,2013-02-14 15:01:00,
2013-02-14 10:04:00,34.0,31.1,29.78,SE,140,7.0,9.0,89,0.00,,,0.00,Wunderground v.1.15,2013-02-14 15:04:00,
2013-02-14 10:07:00,34.1,31.2,29.78,South,191,7.0,9.0,89,0.00,,,0.00,Wunderground v.1.15,2013-02-14 15:07:00,
2013-02-14 10:08:00,34.1,31.2,29.78,SSW,209,7.0,9.0,89,0.00,,,0.00,Wunderground v.1.15,2013-02-14 15:08:00,
2013-02-14 10:09:00,34.1,31.2,29.78,South,191,7.0,7.0,89,0.00,,,0.00,Wunderground v.1.15,2013-02-14 15:09:00,
2013-02-14 10:10:00,34.1,31.2,29.78,South,189,7.0,8.0,89,0.00,,,0.00,Wunderground v.1.15,2013-02-14 15:10:00,
2013-02-14 10:12:00,34.2,31.0,29.78,SSW,203,8.0,10.0,88,0.00,,,0.00,Wunderground v.1.15,2013-02-14 15:12:00,
2013-02-14 10:15:00,34.3,31.1,29.78,SSW,192,8.0,10.0,88,0.00,,,0.00,Wunderground v.1.15,2013-02-14 15:15:00,
2013-02-14 10:16:00,34.3,31.1,29.78,SSW,205,9.0,10.0,88,0.00,,,0.00,Wunderground v.1.15,2013-02-14 15:16:00,
2013-02-14 10:17:00,34.4,31.2,29.78,SSE,155,9.0,12.0,88,0.00,,,0.00,Wunderground v.1.15,2013-02-14 15:17:00,
2013-02-14 10:18:00,34.4,31.2,29.78,South,178,9.0,12.0,88,0.00,,,0.00,Wunderground v.1.15,2013-02-14 15:18:00,
2013-02-14 10:22:00,34.6,31.4,29.78,South,175,9.0,10.0,88,0.00,,,0.00,Wunderground v.1.15,2013-02-14 15:22:00,
2013-02-14 10:23:00,34.6,31.4,29.78,South,175,9.0,10.0,88,0.00,,,0.00,Wunderground v.1.15,2013-02-14 15:23:00,
2013-02-14 10:27:00,34.7,31.5,29.78,SSW,204,10.0,12.0,88,0.00,,,0.00,Wunderground v.1.15,2013-02-14 15:27:00,
2013-02-14 10:28:00,34.7,31.5,29.78,SSE,155,10.0,12.0,88,0.00,,,0.00,Wunderground v.1.15,2013-02-14 15:28:00,
2013-02-14 10:31:00,34.7,31.5,29.78,SE,143,10.0,10.0,88,0.00,,,0.00,Wunderground v.1.15,2013-02-14 15:31:00,
2013-02-14 10:32:00,34.7,31.8,29.78,SSE,165,9.0,10.0,89,0.00,,,0.00,Wunderground v.1.15,2013-02-14 15:32:00,
2013-02-14 10:33:00,34.8,31.9,29.78,SSE,156,9.0,10.0,89,0.00,,,0.00,Wunderground v.1.15,2013-02-14 15:33:00,
2013-02-14 10:36:00,34.8,31.6,29.78,SE,140,9.0,10.0,88,0.00,,,0.00,Wunderground v.1.15,2013-02-14 15:36:00,
2013-02-14 10:37:00,34.9,31.7,29.78,South,189,9.0,10.0,88,0.00,,,0.00,Wunderground v.1.15,2013-02-14 15:37:00,
2013-02-14 10:38:00,34.9,31.7,29.78,South,184,9.0,10.0,88,0.00,,,0.00,Wunderground v.1.15,2013-02-14 15:38:00,
2013-02-14 10:42:00,35.0,31.8,29.78,South,189,9.0,9.0,88,0.00,,,0.00,Wunderground v.1.15,2013-02-14 15:42:00,
2013-02-14 10:43:00,35.0,31.8,29.78,SSE,164,9.0,10.0,88,0.00,,,0.00,Wunderground v.1.15,2013-02-14 15:43:00,
2013-02-14 10:44:00,35.0,32.1,29.78,SSW,201,9.0,10.0,89,0.00,,,0.00,Wunderground v.1.15,2013-02-14 15:44:00,
2013-02-14 10:47:00,35.0,32.1,29.78,South,173,8.0,10.0,89,0.00,,,0.00,Wunderground v.1.15,2013-02-14 15:47:00,
2013-02-14 10:49:00,35.0,32.1,29.78,SSW,194,8.0,8.0,89,0.00,,,0.00,Wunderground v.1.15,2013-02-14 15:49:00,
2013-02-14 10:50:00,35.0,32.1,29.78,SSW,206,8.0,8.0,89,0.00,,,0.00,Wunderground v.1.15,2013-02-14 15:50:00,
2013-02-14 10:53:00,35.0,32.1,29.78,South,182,7.0,10.0,89,0.00,,,0.00,Wunderground v.1.15,2013-02-14 15:53:00,
2013-02-14 10:55:00,35.1,32.2,29.78,South,190,7.0,10.0,89,0.00,,,0.00,Wunderground v.1.15,2013-02-14 15:55:00,
2013-02-14 10:56:00,35.1,32.2,29.78,SW,227,7.0,10.0,89,0.00,,,0.00,Wunderground v.1.15,2013-02-14 15:56:00,
2013-02-14 11:01:00,35.0,32.1,29.78,SSW,201,7.0,9.0,89,0.00,,,0.00,Wunderground v.1.15,2013-02-14 16:01:00,
2013-02-14 11:02:00,35.0,32.1,29.77,SSW,206,8.0,9.0,89,0.00,,,0.00,Wunderground v.1.15,2013-02-14 16:02:00,
2013-02-14 11:03:00,35.0,32.1,29.77,SSE,161,8.0,9.0,89,0.00,,,0.00,Wunderground v.1.15,2013-02-14 16:03:00,
2013-02-14 11:04:00,35.0,32.4,29.77,South,188,8.0,9.0,90,0.00,,,0.00,Wunderground v.1.15,2013-02-14 16:04:00,
2013-02-14 11:08:00,35.0,32.4,29.77,South,179,8.0,9.0,90,0.00,,,0.00,Wunderground v.1.15,2013-02-14 16:08:00,
2013-02-14 11:12:00,35.1,32.5,29.77,South,190,8.0,9.0,90,0.00,,,0.00,Wunderground v.1.15,2013-02-14 16:12:00,
2013-02-14 11:13:00,35.1,32.5,29.77,South,179,8.0,11.0,90,0.00,,,0.00,Wunderground v.1.15,2013-02-14 16:13:00,
2013-02-14 11:14:00,35.1,32.7,29.77,SE,135,8.0,11.0,91,0.00,,,0.00,Wunderground v.1.15,2013-02-14 16:14:00,
2013-02-14 11:18:00,35.1,32.7,29.77,South,172,9.0,11.0,91,0.00,,,0.00,Wunderground v.1.15,2013-02-14 16:18:00,
2013-02-14 11:19:00,35.1,32.7,29.77,SSE,153,9.0,9.0,91,0.00,,,0.00,Wunderground v.1.15,2013-02-14 16:19:00,
2013-02-14 11:20:00,35.1,32.7,29.77,SE,138,9.0,9.0,91,0.00,,,0.00,Wunderground v.1.15,2013-02-14 16:20:00,
2013-02-14 11:23:00,35.1,32.7,29.76,SE,146,9.0,11.0,91,0.00,,,0.00,Wunderground v.1.15,2013-02-14 16:23:00,
2013-02-14 11:25:00,35.1,32.7,29.76,SE,130,9.0,11.0,91,0.00,,,0.00,Wunderground v.1.15,2013-02-14 16:25:00,
2013-02-14 11:26:00,35.1,32.7,29.76,SSE,147,10.0,11.0,91,0.00,,,0.00,Wunderground v.1.15,2013-02-14 16:26:00,
2013-02-14 11:29:00,35.1,32.7,29.76,SSW,209,10.0,10.0,91,0.00,,,0.00,Wunderground v.1.15,2013-02-14 16:29:00,
2013-02-14 11:31:00,35.1,32.7,29.76,South,189,10.0,10.0,91,0.00,,,0.00,Wunderground v.1.15,2013-02-14 16:31:00,
2013-02-14 11:32:00,35.2,32.8,29.76,SE,137,10.0,10.0,91,0.00,,,0.00,Wunderground v.1.15,2013-02-14 16:32:00,
2013-02-14 11:33:00,35.2,32.8,29.76,SSE,165,10.0,11.0,91,0.00,,,0.00,Wunderground v.1.15,2013-02-14 16:33:00,
2013-02-14 11:36:00,35.3,32.9,29.76,SE,132,10.0,11.0,91,0.00,,,0.00,Wunderground v.1.15,2013-02-14 16:36:00,
2013-02-14 11:38:00,35.3,32.9,29.76,South,179,10.0,11.0,91,0.00,,,0.00,Wunderground v.1.15,2013-02-14 16:38:00,
2013-02-14 11:39:00,35.3,32.9,29.76,SE,139,10.0,11.0,91,0.00,,,0.00,Wunderground v.1.15,2013-02-14 16:39:00,
2013-02-14 11:41:00,35.3,32.9,29.76,SE,135,11.0,11.0,91,0.00,,,0.00,Wunderground v.1.15,2013-02-14 16:41:00,
2013-02-14 11:43:00,35.3,32.9,29.75,SSW,198,11.0,12.0,91,0.00,,,0.00,Wunderground v.1.15,2013-02-14 16:43:00,
2013-02-14 11:44:00,35.4,33.0,29.76,SSW,200,10.0,12.0,91,0.00,,,0.00,Wunderground v.1.15,2013-02-14 16:44:00,
2013-02-14 11:45:00,35.4,33.0,29.76,SE,134,10.0,12.0,91,0.00,,,0.00,Wunderground v.1.15,2013-02-14 16:45:00,
2013-02-14 11:48:00,35.4,33.0,29.76,South,185,9.0,12.0,91,0.00,,,0.00,Wunderground v.1.15,2013-02-14 16:48:00,
2013-02-14 11:51:00,35.5,33.1,29.75,SSE,157,9.0,11.0,91,0.00,,,0.00,Wunderground v.1.15,2013-02-14 16:51:00,
2013-02-14 11:52:00,35.6,33.2,29.75,SSE,150,9.0,11.0,91,0.00,,,0.00,Wunderground v.1.15,2013-02-14 16:52:00,
2013-02-14 11:54:00,35.6,33.2,29.75,SE,140,8.0,11.0,91,0.00,,,0.00,Wunderground v.1.15,2013-02-14 16:54:00,
2013-02-14 11:55:00,35.6,33.2,29.75,SSE,154,9.0,13.0,91,0.00,,,0.00,Wunderground v.1.15,2013-02-14 16:55:00,
2013-02-14 11:56:00,35.7,33.3,29.75,ENE,77,9.0,13.0,91,0.00,,,0.00,Wunderground v.1.15,2013-02-14 16:56:00,
2013-02-14 11:58:00,35.7,33.3,29.75,SE,135,9.0,13.0,91,0.00,,,0.00,Wunderground v.1.15,2013-02-14 16:58:00,
2013-02-14 12:01:00,35.9,33.5,29.75,SE,137,10.0,10.0,91,0.00,,,0.00,Wunderground v.1.15,2013-02-14 17:01:00,
2013-02-14 12:03:00,35.9,33.5,29.75,SE,125,10.0,10.0,91,0.00,,,0.00,Wunderground v.1.15,2013-02-14 17:03:00,
2013-02-14 12:04:00,35.9,33.5,29.74,SSE,159,10.0,10.0,91,0.00,,,0.00,Wunderground v.1.15,2013-02-14 17:04:00,
2013-02-14 12:08:00,36.0,33.6,29.74,SE,128,9.0,10.0,91,0.00,,,0.00,Wunderground v.1.15,2013-02-14 17:08:00,
2013-02-14 12:09:00,36.1,33.7,29.74,SE,145,9.0,9.0,91,0.00,,,0.00,Wunderground v.1.15,2013-02-14 17:09:00,
2013-02-14 12:10:00,36.1,33.7,29.74,SE,130,8.0,10.0,91,0.00,,,0.00,Wunderground v.1.15,2013-02-14 17:10:00,
2013-02-14 12:14:00,36.2,33.8,29.74,SE,139,8.0,10.0,91,0.00,,,0.00,Wunderground v.1.15,2013-02-14 17:14:00,
2013-02-14 12:16:00,36.3,33.9,29.74,ESE,121,8.0,12.0,91,0.00,,,0.00,Wunderground v.1.15,2013-02-14 17:16:00,
2013-02-14 12:17:00,36.3,33.9,29.74,SE,146,8.0,12.0,91,0.00,,,0.00,Wunderground v.1.15,2013-02-14 17:17:00,
2013-02-14 12:19:00,36.4,34.0,29.74,ESE,119,8.0,11.0,91,0.00,,,0.00,Wunderground v.1.15,2013-02-14 17:19:00,
2013-02-14 12:21:00,36.5,33.8,29.74,SSE,149,9.0,14.0,90,0.00,,,0.00,Wunderground v.1.15,2013-02-14 17:21:00,
2013-02-14 12:22:00,36.6,33.9,29.74,SSE,157,10.0,14.0,90,0.00,,,0.00,Wunderground v.1.15,2013-02-14 17:22:00,
2013-02-14 12:24:00,36.7,34.0,29.73,SE,143,11.0,14.0,90,0.00,,,0.00,Wunderground v.1.15,2013-02-14 17:24:00,
2013-02-14 12:26:00,36.8,34.1,29.73,SE,146,11.0,14.0,90,0.00,,,0.00,Wunderground v.1.15,2013-02-14 17:26:00,
2013-02-14 12:27:00,36.8,34.1,29.73,SE,143,10.0,14.0,90,0.00,,,0.00,Wunderground v.1.15,2013-02-14 17:27:00,
2013-02-14 12:30:00,36.9,34.2,29.73,SE,128,10.0,10.0,90,0.00,,,0.00,Wunderground v.1.15,2013-02-14 17:30:00,
2013-02-14 12:31:00,36.9,34.2,29.73,East,98,10.0,10.0,90,0.00,,,0.00,Wunderground v.1.15,2013-02-14 17:31:00,
2013-02-14 12:32:00,37.0,34.3,29.73,SSE,148,9.0,10.0,90,0.00,,,0.00,Wunderground v.1.15,2013-02-14 17:32:00,
2013-02-14 12:35:00,37.1,34.4,29.73,SSE,153,9.0,13.0,90,0.00,,,0.00,Wunderground v.1.15,2013-02-14 17:35:00,
2013-02-14 12:37:00,37.1,34.2,29.73,SE,140,10.0,14.0,89,0.00,,,0.00,Wunderground v.1.15,2013-02-14 17:37:00,
2013-02-14 12:39:00,37.1,34.2,29.72,SSE,152,11.0,18.0,89,0.00,,,0.00,Wunderground v.1.15,2013-02-14 17:39:00,
2013-02-14 12:40:00,37.1,34.2,29.73,SSE,164,11.0,19.0,89,0.00,,,0.00,Wunderground v.1.15,2013-02-14 17:40:00,
2013-02-14 12:41:00,37.1,34.2,29.73,South,186,12.0,19.0,89,0.00,,,0.00,Wunderground v.1.15,2013-02-14 17:41:00,
2013-02-14 12:43:00,37.1,34.2,29.73,ESE,114,12.0,19.0,89,0.00,,,0.00,Wunderground v.1.15,2013-02-14 17:43:00,
2013-02-14 12:44:00,37.1,34.2,29.73,SE,134,12.0,19.0,89,0.00,,,0.00,Wunderground v.1.15,2013-02-14 17:44:00,
2013-02-14 12:48:00,37.1,34.2,29.73,SSE,156,13.0,19.0,89,0.00,,,0.00,Wunderground v.1.15,2013-02-14 17:48:00,
2013-02-14 12:49:00,37.1,34.2,29.73,SSE,165,13.0,13.0,89,0.00,,,0.00,Wunderground v.1.15,2013-02-14 17:49:00,
2013-02-14 12:51:00,37.1,34.2,29.73,South,172,12.0,14.0,89,0.00,,,0.00,Wunderground v.1.15,2013-02-14 17:51:00,
2013-02-14 12:52:00,37.1,34.2,29.73,SE,132,12.0,14.0,89,0.00,,,0.00,Wunderground v.1.15,2013-02-14 17:52:00,
2013-02-14 12:53:00,37.0,34.1,29.72,South,173,12.0,14.0,89,0.00,,,0.00,Wunderground v.1.15,2013-02-14 17:53:00,
2013-02-14 12:56:00,37.0,34.1,29.73,South,190,12.0,14.0,89,0.00,,,0.00,Wunderground v.1.15,2013-02-14 17:56:00,
2013-02-14 12:57:00,37.0,34.1,29.72,SSE,147,11.0,15.0,89,0.00,,,0.00,Wunderground v.1.15,2013-02-14 17:57:00,
2013-02-14 12:58:00,37.0,34.1,29.72,SSE,158,11.0,15.0,89,0.00,,,0.00,Wunderground v.1.15,2013-02-14 17:58:00,
2013-02-14 12:59:00,37.0,34.1,29.72,SSE,156,11.0,14.0,89,0.00,,,0.00,Wunderground v.1.15,2013-02-14 17:59:00,
2013-02-14 13:02:00,37.0,34.1,29.72,SSW,193,12.0,14.0,89,0.00,,,0.00,Wunderground v.1.15,2013-02-14 18:02:00,
2013-02-14 13:04:00,37.0,34.1,29.73,SSW,206,12.0,14.0,89,0.00,,,0.00,Wunderground v.1.15,2013-02-14 18:04:00,
2013-02-14 13:06:00,37.1,34.2,29.72,South,179,12.0,14.0,89,0.00,,,0.00,Wunderground v.1.15,2013-02-14 18:06:00,
2013-02-14 13:07:00,37.1,34.2,29.73,SSE,166,13.0,14.0,89,0.00,,,0.00,Wunderground v.1.15,2013-02-14 18:07:00,
2013-02-14 13:09:00,37.1,34.2,29.73,SSW,193,13.0,13.0,89,0.00,,,0.00,Wunderground v.1.15,2013-02-14 18:09:00,
2013-02-14 13:10:00,37.2,34.3,29.73,SE,140,12.0,13.0,89,0.00,,,0.00,Wunderground v.1.15,2013-02-14 18:10:00,
2013-02-14 13:12:00,37.1,34.2,29.73,SSW,200,12.0,13.0,89,0.00,,,0.00,Wunderground v.1.15,2013-02-14 18:12:00,
2013-02-14 13:14:00,37.2,34.3,29.73,SSE,160,11.0,13.0,89,0.00,,,0.00,Wunderground v.1.15,2013-02-14 18:14:00,
2013-02-14 13:16:00,37.2,34.3,29.72,South,186,11.0,14.0,89,0.00,,,0.00,Wunderground v.1.15,2013-02-14 18:16:00,
2013-02-14 13:19:00,37.2,34.3,29.72,South,187,12.0,16.0,89,0.00,,,0.00,Wunderground v.1.15,2013-02-14 18:19:00,
2013-02-14 13:20:00,37.2,34.3,29.72,ESE,121,12.0,16.0,89,0.00,,,0.00,Wunderground v.1.15,2013-02-14 18:20:00,
2013-02-14 13:22:00,37.3,34.4,29.72,SE,139,13.0,17.0,89,0.00,,,0.00,Wunderground v.1.15,2013-02-14 18:22:00,
2013-02-14 18:02:00,37.4,33.6,29.73,WSW,252,14.0,14.0,86,0.00,,,0.01,Wunderground v.1.15,2013-02-14 23:02:00,
2013-02-14 18:03:00,37.4,33.3,29.73,WSW,258,14.0,17.0,85,0.00,,,0.01,Wunderground v.1.15,2013-02-14 23:03:00,
2013-02-14 18:05:00,37.4,33.3,29.73,SW,231,14.0,17.0,85,0.00,,,0.01,Wunderground v.1.15,2013-02-14 23:05:00,
2013-02-14 18:07:00,37.3,33.2,29.73,WSW,243,14.0,17.0,85,0.00,,,0.01,Wunderground v.1.15,2013-02-14 23:07:00,
2013-02-14 18:08:00,37.3,33.2,29.73,West,271,14.0,17.0,85,0.00,,,0.01,Wunderground v.1.15,2013-02-14 23:08:00,
2013-02-14 18:11:00,37.2,33.1,29.73,West,263,14.0,17.0,85,0.00,,,0.01,Wunderground v.1.15,2013-02-14 23:11:00,
2013-02-14 18:13:00,37.1,33.0,29.74,West,263,13.0,17.0,85,0.00,,,0.01,Wunderground v.1.15,2013-02-14 23:13:00,
2013-02-14 18:15:00,37.1,33.0,29.74,WSW,256,13.0,17.0,85,0.00,,,0.01,Wunderground v.1.15,2013-02-14 23:15:00,
2013-02-14 18:16:00,37.1,33.0,29.74,West,264,13.0,17.0,85,0.00,,,0.01,Wunderground v.1.15,2013-02-14 23:16:00,
2013-02-14 18:20:00,36.9,33.1,29.74,WSW,242,12.0,12.0,86,0.00,,,0.01,Wunderground v.1.15,2013-02-14 23:20:00,
2013-02-14 18:21:00,36.9,32.8,29.74,West,281,12.0,16.0,85,0.00,,,0.01,Wunderground v.1.15,2013-02-14 23:21:00,
2013-02-14 18:25:00,36.9,32.8,29.74,SW,234,13.0,16.0,85,0.00,,,0.01,Wunderground v.1.15,2013-02-14 23:25:00,
2013-02-14 18:29:00,36.9,32.5,29.74,WNW,299,13.0,16.0,84,0.00,,,0.01,Wunderground v.1.15,2013-02-14 23:29:00,
2013-02-14 18:30:00,36.9,32.5,29.75,SW,232,14.0,16.0,84,0.00,,,0.01,Wunderground v.1.15,2013-02-14 23:30:00,
2013-02-14 18:34:00,37.0,32.3,29.75,West,271,14.0,16.0,83,0.00,,,0.01,Wunderground v.1.15,2013-02-14 23:34:00,
2013-02-14 18:35:00,37.1,32.4,29.75,WNW,292,14.0,16.0,83,0.00,,,0.01,Wunderground v.1.15,2013-02-14 23:35:00,
2013-02-14 18:36:00,37.2,32.5,29.75,WNW,291,15.0,17.0,83,0.00,,,0.01,Wunderground v.1.15,2013-02-14 23:36:00,
2013-02-14 18:41:00,37.3,32.3,29.74,West,268,15.0,15.0,82,0.00,,,0.01,Wunderground v.1.15,2013-02-14 23:41:00,
2013-02-14 18:45:00,37.3,32.3,29.75,West,259,15.0,18.0,82,0.00,,,0.01,Wunderground v.1.15,2013-02-14 23:45:00,
2013-02-14 18:46:00,37.3,32.3,29.74,WSW,243,15.0,18.0,82,0.00,,,0.01,Wunderground v.1.15,2013-02-14 23:46:00,
2013-02-14 18:49:00,37.3,32.0,29.75,WSW,256,15.0,18.0,81,0.00,,,0.01,Wunderground v.1.15,2013-02-14 23:49:00,
2013-02-14 18:50:00,37.3,32.3,29.75,WSW,256,15.0,15.0,82,0.00,,,0.01,Wunderground v.1.15,2013-02-14 23:50:00,
2013-02-14 18:55:00,37.2,32.2,29.75,SSW,203,14.0,17.0,82,0.00,,,0.01,Wunderground v.1.15,2013-02-14 23:55:00,
2013-02-14 18:58:00,37.3,32.3,29.75,West,263,14.0,17.0,82,0.00,,,0.01,Wunderground v.1.15,2013-02-14 23:58:00,
2013-02-14 19:02:00,37.5,32.2,29.75,West,271,15.0,23.0,81,0.00,,,0.01,Wunderground v.1.15,2013-02-15 00:02:00,
2013-02-14 19:04:00,37.5,31.9,29.75,West,274,16.0,23.0,80,0.00,,,0.01,Wunderground v.1.15,2013-02-15 00:04:00,
2013-02-14 19:05:00,37.5,31.9,29.75,West,271,16.0,23.0,80,0.00,,,0.01,Wunderground v.1.15,2013-02-15 00:05:00,
2013-02-14 19:06:00,37.6,32.0,29.75,West,268,16.0,23.0,80,0.00,,,0.01,Wunderground v.1.15,2013-02-15 00:06:00,
2013-02-14 19:07:00,37.7,32.1,29.75,West,261,18.0,23.0,80,0.00,,,0.01,Wunderground v.1.15,2013-02-15 00:07:00,
2013-02-14 19:11:00,37.7,32.1,29.75,West,278,18.0,18.0,80,0.00,,,0.01,Wunderground v.1.15,2013-02-15 00:11:00,
2013-02-14 19:13:00,37.7,32.1,29.76,SW,230,18.0,21.0,80,0.00,,,0.01,Wunderground v.1.15,2013-02-15 00:13:00,
2013-02-14 19:16:00,37.7,32.1,29.76,WNW,282,17.0,21.0,80,0.00,,,0.01,Wunderground v.1.15,2013-02-15 00:16:00,
2013-02-14 19:18:00,37.7,32.1,29.76,SW,221,16.0,21.0,80,0.00,,,0.01,Wunderground v.1.15,2013-02-15 00:18:00,
2013-02-14 19:19:00,37.6,32.0,29.75,West,259,16.0,21.0,80,0.00,,,0.01,Wunderground v.1.15,2013-02-15 00:19:00,
2013-02-14 19:21:00,37.6,32.0,29.76,West,260,16.0,19.0,80,0.00,,,0.01,Wunderground v.1.15,2013-02-15 00:21:00,
2013-02-14 19:25:00,37.5,31.9,29.76,SW,235,15.0,19.0,80,0.00,,,0.01,Wunderground v.1.15,2013-02-15 00:25:00,
2013-02-14 19:27:00,37.5,31.9,29.76,WNW,283,15.0,19.0,80,0.00,,,0.01,Wunderground v.1.15,2013-02-15 00:27:00,
2013-02-14 19:28:00,37.5,31.9,29.76,WSW,254,15.0,19.0,80,0.00,,,0.01,Wunderground v.1.15,2013-02-15 00:28:00,
2013-02-14 19:29:00,37.5,31.9,29.76,WSW,251,15.0,19.0,80,0.00,,,0.01,Wunderground v.1.15,2013-02-15 00:29:00,
2013-02-14 19:32:00,37.6,31.7,29.76,West,263,16.0,20.0,79,0.00,,,0.01,Wunderground v.1.15,2013-02-15 00:32:00,
2013-02-14 19:33:00,37.7,31.8,29.76,WSW,256,16.0,20.0,79,0.00,,,0.01,Wunderground v.1.15,2013-02-15 00:33:00,
2013-02-14 19:35:00,37.6,31.7,29.76,SW,216,16.0,20.0,79,0.00,,,0.01,Wunderground v.1.15,2013-02-15 00:35:00,
2013-02-14 19:36:00,37.7,31.8,29.76,West,267,16.0,23.0,79,0.00,,,0.01,Wunderground v.1.15,2013-02-15 00:36:00,
2013-02-14 19:38:00,37.6,32.0,29.76,West,264,17.0,23.0,80,0.00,,,0.01,Wunderground v.1.15,2013-02-15 00:38:00,
2013-02-14 19:41:00,37.6,31.7,29.76,West,261,17.0,22.0,79,0.00,,,0.01,Wunderground v.1.15,2013-02-15 00:41:00,
2013-02-14 19:42:00,37.6,32.0,29.76,WSW,250,17.0,22.0,80,0.00,,,0.01,Wunderground v.1.15,2013-02-15 00:42:00,
2013-02-14 19:43:00,37.6,31.7,29.76,West,268,18.0,28.0,79,0.00,,,0.01,Wunderground v.1.15,2013-02-15 00:43:00,
2013-02-14 19:47:00,37.7,31.8,29.76,West,268,20.0,28.0,79,0.00,,,0.01,Wunderground v.1.15,2013-02-15 00:47:00,
2013-02-14 19:50:00,37.7,31.8,29.76,WSW,258,20.0,20.0,79,0.00,,,0.01,Wunderground v.1.15,2013-02-15 00:50:00,
2013-02-14 19:52:00,37.7,31.8,29.76,West,270,20.0,20.0,79,0.00,,,0.01,Wunderground v.1.15,2013-02-15 00:52:00,
2013-02-14 19:53:00,37.7,31.8,29.76,South,189,20.0,20.0,79,0.00,,,0.01,Wunderground v.1.15,2013-02-15 00:53:00,
2013-02-14 19:55:00,37.6,31.7,29.76,West,266,19.0,20.0,79,0.00,,,0.01,Wunderground v.1.15,2013-02-15 00:55:00,
2013-02-14 19:58:00,37.7,31.8,29.76,WSW,246,18.0,20.0,79,0.00,,,0.01,Wunderground v.1.15,2013-02-15 00:58:00,
2013-02-14 20:01:00,37.7,31.5,29.76,WSW,248,20.0,28.0,78,0.00,,,0.01,Wunderground v.1.15,2013-02-15 01:01:00,
2013-02-14 20:04:00,37.7,31.8,29.76,West,270,21.0,28.0,79,0.00,,,0.01,Wunderground v.1.15,2013-02-15 01:04:00,
2013-02-14 20:07:00,37.7,31.8,29.76,WSW,241,22.0,29.0,79,0.00,,,0.01,Wunderground v.1.15,2013-02-15 01:07:00,
2013-02-14 20:08:00,37.6,31.7,29.76,West,275,23.0,29.0,79,0.00,,,0.01,Wunderground v.1.15,2013-02-15 01:08:00,
2013-02-14 20:09:00,37.6,31.7,29.76,West,273,23.0,23.0,79,0.00,,,0.01,Wunderground v.1.15,2013-02-15 01:09:00,
2013-02-14 20:10:00,37.5,31.6,29.76,WNW,282,23.0,24.0,79,0.00,,,0.01,Wunderground v.1.15,2013-02-15 01:10:00,
2013-02-14 20:12:00,37.5,31.6,29.76,SW,231,23.0,24.0,79,0.00,,,0.01,Wunderground v.1.15,2013-02-15 01:12:00,
2013-02-14 20:15:00,37.3,31.7,29.76,West,266,22.0,24.0,80,0.00,,,0.01,Wunderground v.1.15,2013-02-15 01:15:00,
2013-02-14 20:17:00,37.3,31.4,29.76,West,270,23.0,31.0,79,0.00,,,0.01,Wunderground v.1.15,2013-02-15 01:17:00,
2013-02-14 20:18:00,37.4,31.8,29.76,WSW,258,23.0,31.0,80,0.00,,,0.01,Wunderground v.1.15,2013-02-15 01:18:00,
2013-02-14 20:20:00,37.3,31.7,29.76,WSW,253,23.0,23.0,80,0.00,,,0.01,Wunderground v.1.15,2013-02-15 01:20:00,
2013-02-14 20:23:00,37.2,31.6,29.76,SW,225,22.0,23.0,80,0.00,,,0.01,Wunderground v.1.15,2013-02-15 01:23:00,
2013-02-14 20:24:00,37.2,31.6,29.76,West,266,23.0,25.0,80,0.00,,,0.01,Wunderground v.1.15,2013-02-15 01:24:00,
2013-02-14 20:25:00,37.2,31.6,29.76,West,265,23.0,25.0,80,0.00,,,0.01,Wunderground v.1.15,2013-02-15 01:25:00,
2013-02-14 20:28:00,37.2,31.6,29.76,West,263,22.0,25.0,80,0.00,,,0.01,Wunderground v.1.15,2013-02-15 01:28:00,
2013-02-14 20:29:00,37.1,31.5,29.77,West,281,22.0,22.0,80,0.00,,,0.01,Wunderground v.1.15,2013-02-15 01:29:00,
2013-02-14 20:34:00,37.1,31.8,29.77,West,277,21.0,22.0,81,0.00,,,0.01,Wunderground v.1.15,2013-02-15 01:34:00,
2013-02-14 20:37:00,36.9,31.6,29.77,WNW,285,19.0,22.0,81,0.00,,,0.01,Wunderground v.1.15,2013-02-15 01:37:00,
2013-02-14 20:40:00,36.9,31.6,29.77,West,269,20.0,20.0,81,0.00,,,0.01,Wunderground v.1.15,2013-02-15 01:40:00,
2013-02-14 20:41:00,36.9,31.6,29.77,WSW,248,20.0,28.0,81,0.00,,,0.01,Wunderground v.1.15,2013-02-15 01:41:00,
2013-02-14 20:44:00,36.8,31.2,29.77,West,263,22.0,28.0,80,0.00,,,0.01,Wunderground v.1.15,2013-02-15 01:44:00,
2013-02-14 20:46:00,36.8,31.5,29.77,West,275,23.0,30.0,81,0.00,,,0.01,Wunderground v.1.15,2013-02-15 01:46:00,
2013-02-14 20:49:00,36.7,31.4,29.77,WNW,282,24.0,30.0,81,0.00,,,0.01,Wunderground v.1.15,2013-02-15 01:49:00,
2013-02-14 20:50:00,36.6,31.3,29.77,West,269,24.0,26.0,81,0.00,,,0.01,Wunderground v.1.15,2013-02-15 01:50:00,
2013-02-14 20:51:00,36.6,31.3,29.77,West,280,25.0,27.0,81,0.00,,,0.01,Wunderground v.1.15,2013-02-15 01:51:00,
2013-02-14 20:52:00,36.5,30.9,29.77,WNW,294,25.0,28.0,80,0.00,,,0.01,Wunderground v.1.15,2013-02-15 01:52:00,
2013-02-14 20:54:00,36.4,30.8,29.78,West,263,25.0,28.0,80,0.00,,,0.01,Wunderground v.1.15,2013-02-15 01:54:00,
2013-02-14 20:55:00,36.4,30.8,29.78,West,265,25.0,28.0,80,0.00,,,0.01,Wunderground v.1.15,2013-02-15 01:55:00,
2013-02-14 20:56:00,36.4,30.8,29.77,WNW,289,25.0,33.0,80,0.00,,,0.01,Wunderground v.1.15,2013-02-15 01:56:00,
2013-02-14 20:57:00,36.4,30.8,29.78,WNW,303,25.0,33.0,80,0.00,,,0.01,Wunderground v.1.15,2013-02-15 01:57:00,
2013-02-14 21:00:00,36.3,30.7,29.78,West,276,24.0,24.0,80,0.00,,,0.01,Wunderground v.1.15,2013-02-15 02:00:00,
2013-02-14 21:03:00,36.3,30.7,29.77,West,271,24.0,34.0,80,0.00,,,0.01,Wunderground v.1.15,2013-02-15 02:03:00,
2013-02-14 21:05:00,36.3,30.7,29.77,West,272,25.0,34.0,80,0.00,,,0.01,Wunderground v.1.15,2013-02-15 02:05:00,
2013-02-14 21:07:00,36.3,30.7,29.77,West,265,24.0,34.0,80,0.00,,,0.01,Wunderground v.1.15,2013-02-15 02:07:00,
2013-02-14 21:11:00,36.2,30.9,29.78,West,270,24.0,24.0,81,0.00,,,0.01,Wunderground v.1.15,2013-02-15 02:11:00,
2013-02-14 21:12:00,36.1,30.8,29.78,West,270,23.0,24.0,81,0.00,,,0.01,Wunderground v.1.15,2013-02-15 02:12:00,
2013-02-14 21:14:00,36.1,30.8,29.78,WNW,286,22.0,24.0,81,0.00,,,0.01,Wunderground v.1.15,2013-02-15 02:14:00,
2013-02-14 21:16:00,36.1,30.8,29.78,WSW,253,21.0,25.0,81,0.00,,,0.01,Wunderground v.1.15,2013-02-15 02:16:00,
2013-02-14 21:17:00,36.1,30.8,29.78,West,269,21.0,25.0,81,0.00,,,0.01,Wunderground v.1.15,2013-02-15 02:17:00,
2013-02-14 21:19:00,36.1,30.8,29.78,West,279,21.0,25.0,81,0.00,,,0.01,Wunderground v.1.15,2013-02-15 02:19:00,
2013-02-14 21:20:00,36.1,30.8,29.78,West,277,21.0,23.0,81,0.00,,,0.01,Wunderground v.1.15,2013-02-15 02:20:00,
2013-02-14 21:21:00,36.0,30.7,29.78,WSW,258,21.0,23.0,81,0.00,,,0.01,Wunderground v.1.15,2013-02-15 02:21:00,
2013-02-14 21:24:00,35.9,30.6,29.78,West,270,22.0,23.0,81,0.00,,,0.01,Wunderground v.1.15,2013-02-15 02:24:00,
2013-02-14 21:26:00,35.8,30.8,29.78,West,273,21.0,23.0,82,0.00,,,0.01,Wunderground v.1.15,2013-02-15 02:26:00,
2013-02-14 21:31:00,35.6,30.6,29.79,West,273,21.0,22.0,82,0.00,,,0.01,Wunderground v.1.15,2013-02-15 02:31:00,
2013-02-14 21:34:00,35.4,30.5,29.79,West,265,20.0,22.0,82,0.00,,,0.01,Wunderground v.1.15,2013-02-15 02:34:00,
2013-02-14 21:36:00,35.4,30.5,29.79,West,263,21.0,22.0,82,0.00,,,0.01,Wunderground v.1.15,2013-02-15 02:36:00,
2013-02-14 21:38:00,35.4,30.5,29.79,West,263,21.0,26.0,82,0.00,,,0.01,Wunderground v.1.15,2013-02-15 02:38:00,
2013-02-14 21:40:00,35.3,30.4,29.79,West,277,20.0,23.0,82,0.00,,,0.01,Wunderground v.1.15,2013-02-15 02:40:00,
2013-02-14 21:43:00,35.3,30.4,29.79,WSW,258,20.0,23.0,82,0.00,,,0.01,Wunderground v.1.15,2013-02-15 02:43:00,
2013-02-14 21:45:00,35.3,30.1,29.79,West,262,21.0,28.0,81,0.00,,,0.01,Wunderground v.1.15,2013-02-15 02:45:00,
2013-02-14 21:47:00,35.3,30.4,29.79,West,270,21.0,28.0,82,0.00,,,0.01,Wunderground v.1.15,2013-02-15 02:47:00,
2013-02-14 21:48:00,35.3,30.4,29.79,West,259,20.0,28.0,82,0.00,,,0.01,Wunderground v.1.15,2013-02-15 02:48:00,
2013-02-14 21:49:00,35.3,30.1,29.79,WNW,282,20.0,20.0,81,0.00,,,0.01,Wunderground v.1.15,2013-02-15 02:49:00,
2013-02-14 21:53:00,35.3,30.1,29.79,WNW,283,22.0,25.0,81,0.00,,,0.01,Wunderground v.1.15,2013-02-15 02:53:00,
2013-02-14 21:54:00,35.3,30.1,29.79,West,269,22.0,25.0,81,0.00,,,0.01,Wunderground v.1.15,2013-02-15 02:54:00,
2013-02-14 21:56:00,35.3,30.1,29.79,West,271,22.0,25.0,81,0.00,,,0.01,Wunderground v.1.15,2013-02-15 02:56:00,
2013-02-14 21:58:00,35.3,30.1,29.79,West,261,21.0,25.0,81,0.00,,,0.01,Wunderground v.1.15,2013-02-15 02:58:00,
2013-02-14 21:59:00,35.2,30.0,29.79,West,269,21.0,24.0,81,0.00,,,0.01,Wunderground v.1.15,2013-02-15 02:59:00,
2013-02-14 22:01:00,35.3,30.1,29.79,West,275,20.0,24.0,81,0.00,,,0.01,Wunderground v.1.15,2013-02-15 03:01:00,
2013-02-14 22:05:00,35.3,30.1,29.79,West,277,19.0,24.0,81,0.00,,,0.01,Wunderground v.1.15,2013-02-15 03:05:00,
2013-02-14 22:06:00,35.2,30.0,29.80,WNW,299,20.0,24.0,81,0.00,,,0.01,Wunderground v.1.15,2013-02-15 03:06:00,
2013-02-14 22:10:00,35.2,30.0,29.80,West,268,19.0,19.0,81,0.00,,,0.01,Wunderground v.1.15,2013-02-15 03:10:00,
2013-02-14 22:12:00,35.2,30.0,29.80,West,265,19.0,23.0,81,0.00,,,0.01,Wunderground v.1.15,2013-02-15 03:12:00,
2013-02-14 22:15:00,35.2,30.0,29.80,WNW,299,19.0,23.0,81,0.00,,,0.01,Wunderground v.1.15,2013-02-15 03:15:00,
2013-02-14 22:16:00,35.2,30.0,29.80,WNW,289,18.0,25.0,81,0.00,,,0.01,Wunderground v.1.15,2013-02-15 03:16:00,
2013-02-14 22:19:00,35.2,30.0,29.80,WNW,299,20.0,20.0,81,0.00,,,0.01,Wunderground v.1.15,2013-02-15 03:19:00,
2013-02-14 22:22:00,35.2,30.0,29.80,West,268,19.0,20.0,81,0.00,,,0.01,Wunderground v.1.15,2013-02-15 03:22:00,
2013-02-14 22:23:00,35.2,30.0,29.80,West,261,20.0,26.0,81,0.00,,,0.01,Wunderground v.1.15,2013-02-15 03:23:00,
2013-02-14 22:27:00,35.2,29.6,29.80,West,263,20.0,32.0,80,0.00,,,0.01,Wunderground v.1.15,2013-02-15 03:27:00,
2013-02-14 22:28:00,35.2,29.6,29.80,West,275,20.0,32.0,80,0.00,,,0.01,Wunderground v.1.15,2013-02-15 03:28:00,
2013-02-14 22:29:00,35.3,29.4,29.81,WNW,289,19.0,19.0,79,0.00,,,0.01,Wunderground v.1.15,2013-02-15 03:29:00,
2013-02-14 22:33:00,35.3,29.7,29.80,West,263,19.0,24.0,80,0.00,,,0.01,Wunderground v.1.15,2013-02-15 03:33:00,
2013-02-14 22:36:00,35.2,29.6,29.80,West,277,19.0,24.0,80,0.00,,,0.01,Wunderground v.1.15,2013-02-15 03:36:00,
2013-02-14 22:38:00,35.2,29.6,29.80,West,270,17.0,24.0,80,0.00,,,0.01,Wunderground v.1.15,2013-02-15 03:38:00,
2013-02-14 22:39:00,35.2,29.6,29.80,West,270,17.0,17.0,80,0.00,,,0.01,Wunderground v.1.15,2013-02-15 03:39:00,
2013-02-14 22:41:00,35.2,29.6,29.80,West,278,18.0,18.0,80,0.00,,,0.01,Wunderground v.1.15,2013-02-15 03:41:00,
2013-02-14 22:43:00,35.2,29.6,29.80,West,273,17.0,23.0,80,0.00,,,0.01,Wunderground v.1.15,2013-02-15 03:43:00,
2013-02-14 22:44:00,35.2,29.6,29.80,West,281,17.0,23.0,80,0.00,,,0.01,Wunderground v.1.15,2013-02-15 03:44:00,
2013-02-14 22:46:00,35.2,29.6,29.80,West,273,17.0,23.0,80,0.00,,,0.01,Wunderground v.1.15,2013-02-15 03:46:00,
2013-02-14 22:48:00,35.2,29.6,29.81,West,275,17.0,23.0,80,0.00,,,0.01,Wunderground v.1.15,2013-02-15 03:48:00,
2013-02-14 22:50:00,35.2,29.6,29.81,West,263,17.0,20.0,80,0.00,,,0.01,Wunderground v.1.15,2013-02-15 03:50:00,
2013-02-14 22:51:00,35.2,29.3,29.81,West,270,17.0,20.0,79,0.00,,,0.01,Wunderground v.1.15,2013-02-15 03:51:00,
2013-02-14 22:55:00,35.2,29.6,29.81,West,268,18.0,22.0,80,0.00,,,0.01,Wunderground v.1.15,2013-02-15 03:55:00,
2013-02-14 22:58:00,35.1,29.6,29.81,West,260,17.0,22.0,80,0.00,,,0.01,Wunderground v.1.15,2013-02-15 03:58:00,
2013-02-14 22:59:00,35.1,29.6,29.81,WNW,289,16.0,22.0,80,0.00,,,0.01,Wunderground v.1.15,2013-02-15 03:59:00,
2013-02-14 23:03:00,35.1,29.6,29.81,West,274,14.0,16.0,80,0.00,,,0.01,Wunderground v.1.15,2013-02-15 04:03:00,
2013-02-14 23:04:00,35.0,29.5,29.81,West,259,14.0,23.0,80,0.00,,,0.01,Wunderground v.1.15,2013-02-15 04:04:00,
2013-02-14 23:06:00,35.1,29.6,29.81,West,280,14.0,23.0,80,0.00,,,0.01,Wunderground v.1.15,2013-02-15 04:06:00,
2013-02-14 23:07:00,35.0,29.5,29.81,WSW,249,14.0,23.0,80,0.00,,,0.01,Wunderground v.1.15,2013-02-15 04:07:00,
2013-02-14 23:08:00,35.0,29.8,29.81,West,267,15.0,23.0,81,0.00,,,0.01,Wunderground v.1.15,2013-02-15 04:08:00,
2013-02-14 23:09:00,35.0,29.5,29.81,WNW,296,14.0,14.0,80,0.00,,,0.01,Wunderground v.1.15,2013-02-15 04:09:00,
2013-02-14 23:12:00,35.0,29.5,29.81,WNW,284,16.0,19.0,80,0.00,,,0.01,Wunderground v.1.15,2013-02-15 04:12:00,
2013-02-14 23:14:00,35.0,29.8,29.82,WNW,299,17.0,19.0,81,0.00,,,0.01,Wunderground v.1.15,2013-02-15 04:14:00,
2013-02-14 23:17:00,34.9,29.7,29.82,WNW,284,16.0,19.0,81,0.00,,,0.01,Wunderground v.1.15,2013-02-15 04:17:00,
2013-02-14 23:18:00,34.9,29.7,29.82,West,266,16.0,19.0,81,0.00,,,0.01,Wunderground v.1.15,2013-02-15 04:18:00,
2013-02-14 23:19:00,34.9,29.7,29.82,West,277,17.0,17.0,81,0.00,,,0.01,Wunderground v.1.15,2013-02-15 04:19:00,
2013-02-14 23:22:00,34.9,29.7,29.82,WNW,285,15.0,20.0,81,0.00,,,0.01,Wunderground v.1.15,2013-02-15 04:22:00,
2013-02-14 23:23:00,34.8,29.6,29.82,West,275,15.0,20.0,81,0.00,,,0.01,Wunderground v.1.15,2013-02-15 04:23:00,
2013-02-14 23:27:00,34.8,29.6,29.83,WNW,285,15.0,20.0,81,0.00,,,0.01,Wunderground v.1.15,2013-02-15 04:27:00,
2013-02-14 23:29:00,34.8,29.6,29.83,West,277,15.0,20.0,81,0.00,,,0.01,Wunderground v.1.15,2013-02-15 04:29:00,
2013-02-14 23:31:00,34.8,29.6,29.83,West,270,16.0,16.0,81,0.00,,,0.01,Wunderground v.1.15,2013-02-15 04:31:00,
2013-02-14 23:34:00,34.7,29.8,29.83,West,278,16.0,16.0,82,0.00,,,0.01,Wunderground v.1.15,2013-02-15 04:34:00,
2013-02-14 23:36:00,34.7,29.8,29.83,WSW,256,15.0,18.0,82,0.00,,,0.01,Wunderground v.1.15,2013-02-15 04:36:00,
2013-02-14 23:39:00,34.7,29.8,29.83,West,278,15.0,18.0,82,0.00,,,0.01,Wunderground v.1.15,2013-02-15 04:39:00,
2013-02-14 23:41:00,34.6,29.7,29.83,WNW,289,14.0,22.0,82,0.00,,,0.01,Wunderground v.1.15,2013-02-15 04:41:00,
2013-02-14 23:43:00,34.7,29.5,29.83,West,275,14.0,22.0,81,0.00,,,0.01,Wunderground v.1.15,2013-02-15 04:43:00,
2013-02-14 23:44:00,34.6,29.4,29.83,West,275,14.0,22.0,81,0.00,,,0.01,Wunderground v.1.15,2013-02-15 04:44:00,
2013-02-14 23:48:00,34.6,29.7,29.84,West,266,14.0,22.0,82,0.00,,,0.01,Wunderground v.1.15,2013-02-15 04:48:00,
2013-02-14 23:49:00,34.6,29.7,29.84,West,272,14.0,22.0,82,0.00,,,0.01,Wunderground v.1.15,2013-02-15 04:49:00,
2013-02-14 23:50:00,34.5,29.3,29.84,NW,308,13.0,13.0,81,0.00,,,0.01,Wunderground v.1.15,2013-02-15 04:50:00,
2013-02-14 23:54:00,34.5,29.3,29.84,West,277,14.0,22.0,81,0.00,,,0.01,Wunderground v.1.15,2013-02-15 04:54:00,
2013-02-14 23:55:00,34.5,29.3,29.84,WSW,258,14.0,22.0,81,0.00,,,0.01,Wunderground v.1.15,2013-02-15 04:55:00,
2013-02-14 23:58:00,34.5,29.3,29.84,West,277,14.0,22.0,81,0.00,,,0.01,Wunderground v.1.15,2013-02-15 04:58:00,
2013-02-14 23:59:00,34.5,29.3,29.84,WNW,289,16.0,17.0,81,0.00,,,0.01,Wunderground v.1.15,2013-02-15 04:59:00,